Theta_e
312 316 317 318 316 315 314 314 314 314 314 314 314 314 314 314 312 313 313 312 312 314 315 315 314 314 314 314 313 312 313 312 311 311 311 312 312 313 314 315 315 316 317 318 318 317 317 316 316 316 316 315 315 314 314 314 314 313 313 312 312 311 311 310 309 308 307 307 307 306 306 306 305 304 303 303 302 302 302 302 302 301 301 300 300 300
312 315 317 317 315 314 314 314 313 313 313 313 314 314 313 313 313 312 313 313 312 313 314 315 314 314 313 314 313 312 313 312 312 311 311 312 312 312 313 314 315 316 317 318 318 317 316 316 316 315 315 315 315 315 314 314 314 313 313 313 312 311 311 310 310 309 308 308 308 308 308 308 307 305 305 304 304 303 303 302 302 301 301 300 300 299
314 315 314 314 313 313 314 313 312 313 313 314 314 314 314 313 313 313 314 315 312 313 316 317 314 313 313 313 313 312 313 313 313 313 313 313 312 313 313 314 315 315 316 317 317 318 317 316 315 315 315 315 315 315 315 314 314 313 313 312 312 311 311 310 310 309 309 309 308 308 308 308 307 306 305 305 304 303 303 302 302 301 300 300 299 299
317 316 313 311 311 313 314 313 313 313 313 314 314 314 314 313 313 314 316 318 315 313 318 318 314 313 313 313 313 312 311 312 313 313 313 313 313 313 314 315 315 315 316 316 317 317 317 316 315 315 315 315 315 315 314 314 314 313 313 312 312 311 311 310 310 309 309 308 307 306 306 306 306 305 304 303 303 303 302 302 301 301 300 300 299 299
316 315 313 312 313 314 314 313 314 314 313 314 314 314 314 314 314 314 315 317 316 314 317 316 314 313 314 313 313 313 312 312 312 312 313 313 313 314 314 314 315 315 316 316 317 317 317 316 316 315 315 315 315 314 315 314 314 314 313 312 312 311 310 310 309 309 308 307 306 305 305 304 304 304 303 303 303 303 302 302 302 301 300 300 299 299
313 312 312 315 317 315 315 315 316 317 314 314 315 315 314 314 315 315 315 315 315 317 317 316 316 317 318 317 314 313 314 314 313 312 312 313 313 314 313 314 315 316 317 317 317 317 317 317 316 315 315 315 314 315 315 315 314 314 313 312 312 311 310 310 309 309 308 307 306 306 306 305 305 304 304 305 305 304 304 304 303 302 300 300 299 299
314 312 313 318 320 318 317 316 316 316 314 315 320 320 315 314 315 316 316 315 318 321 317 316 319 318 318 320 317 316 316 315 315 315 313 312 313 313 314 315 317 317 317 317 317 317 317 317 316 316 315 315 315 315 315 314 314 313 313 312 312 311 310 310 309 308 308 307 307 307 307 307 307 307 307 307 306 305 305 304 303 302 301 300 299 299
315 313 315 317 318 320 318 316 316 315 315 317 321 324 321 318 318 317 316 317 319 320 317 317 320 318 317 318 319 319 319 318 317 318 315 311 312 313 315 316 317 317 317 317 317 317 317 316 317 316 316 315 315 315 315 314 314 313 313 312 311 311 310 310 309 308 308 307 307 307 307 307 307 307 308 307 306 306 305 304 303 302 301 300 299 298
315 316 318 317 316 318 317 316 317 316 316 319 319 320 321 321 319 318 318 319 319 318 317 318 319 320 318 317 318 318 317 319 317 317 317 313 312 312 315 317 317 318 317 316 317 317 317 317 316 316 315 315 315 315 315 314 314 313 312 312 311 311 310 309 309 308 308 308 308 307 307 307 307 307 306 305 305 305 305 304 303 302 301 300 299 298
315 316 315 316 318 316 315 318 321 320 318 317 318 319 321 324 323 321 319 319 319 319 319 319 319 319 318 318 319 316 316 318 316 316 316 314 313 313 315 317 317 317 317 317 317 317 317 316 315 315 314 315 315 315 315 314 314 313 312 312 311 310 310 309 309 308 308 308 307 307 307 307 307 306 305 305 304 304 304 304 303 302 301 300 300 299
312 311 311 314 315 314 318 317 314 317 316 313 318 323 325 326 325 326 324 320 319 319 319 321 320 318 318 318 318 317 317 318 315 315 315 314 313 313 315 316 316 317 317 317 317 316 317 316 315 315 314 315 315 315 315 314 314 313 312 312 311 310 310 309 309 308 308 308 307 308 308 307 307 306 306 305 305 305 304 304 303 303 302 301 300 299
311 311 314 315 311 312 318 315 309 311 312 314 322 324 324 325 324 324 325 320 318 319 319 321 319 317 317 317 316 317 318 317 315 315 317 317 314 313 315 317 316 317 317 316 316 316 316 315 314 315 314 315 315 315 315 314 314 313 312 312 311 310 310 309 309 308 308 308 308 308 308 308 307 306 306 306 306 306 305 305 304 303 302 301 300 299
315 313 314 314 311 312 317 318 316 315 313 315 322 321 319 322 321 320 322 321 319 319 317 317 316 315 316 316 316 317 319 319 316 313 315 316 313 313 316 318 316 317 317 316 315 315 315 316 315 315 314 315 315 315 315 314 314 313 312 311 311 311 310 309 309 309 308 308 309 309 308 308 307 306 306 307 306 306 306 305 304 303 303 302 301 300
320 315 312 312 312 313 317 317 319 319 316 315 318 319 319 320 319 319 323 322 318 318 316 314 315 316 317 319 319 316 316 317 314 311 312 313 313 315 317 317 316 317 317 315 314 314 315 316 315 315 315 316 315 315 314 314 314 313 312 311 311 311 310 310 309 309 309 309 310 309 309 308 307 307 307 307 307 306 306 305 304 304 303 303 303 302
320 316 315 315 315 315 315 315 317 321 318 314 318 320 319 321 324 323 324 322 318 322 319 313 316 319 317 319 322 318 313 312 311 311 313 313 314 316 316 316 317 316 316 315 313 314 315 316 315 315 315 315 315 315 314 314 313 313 312 311 312 312 312 312 311 310 311 311 311 309 308 308 307 307 307 307 307 306 306 306 304 304 303 303 302 302
317 318 318 314 313 314 315 314 318 322 318 315 319 321 316 320 325 321 320 321 318 321 320 315 318 321 316 315 318 318 315 312 311 311 311 310 313 315 314 316 317 316 316 315 314 315 315 315 315 315 315 315 315 314 313 313 313 313 313 312 312 313 313 313 312 312 312 312 311 309 309 309 308 307 307 307 307 307 306 306 304 304 303 302 301 301
316 320 319 311 310 313 313 313 314 316 317 315 316 318 316 317 319 316 320 321 316 316 318 318 319 318 316 316 315 315 315 314 313 312 311 310 311 312 313 314 316 317 316 315 314 315 315 315 315 315 315 315 315 314 313 313 313 313 314 313 313 313 313 313 313 314 313 311 310 310 310 309 308 308 308 308 308 307 306 306 305 304 302 302 301 300
317 318 318 314 315 313 306 307 312 311 312 317 318 317 315 316 317 317 320 321 318 317 318 319 318 316 316 319 316 314 316 316 316 316 315 312 310 310 311 312 315 316 316 314 314 314 315 315 315 315 315 315 315 314 313 313 313 313 314 314 314 313 313 313 314 314 313 312 311 311 310 310 309 309 309 308 308 307 306 305 305 304 302 302 301 300
316 315 317 316 316 313 306 309 315 309 307 314 317 315 315 317 319 318 318 319 318 318 318 318 319 317 317 317 316 316 317 317 317 316 314 313 311 308 310 312 315 316 315 315 313 314 314 315 315 315 315 315 315 314 313 313 313 313 313 314 314 313 313 312 312 313 313 312 312 312 311 311 310 310 309 308 307 306 306 306 305 304 303 302 301 300
315 315 317 316 314 312 310 312 317 314 310 310 312 312 314 315 318 319 319 320 319 318 319 320 320 319 319 320 318 317 317 317 317 316 316 315 311 309 310 313 315 315 314 315 315 314 315 314 315 315 315 315 315 314 313 313 313 313 313 313 314 313 313 312 311 312 313 313 313 312 311 311 311 310 310 308 307 307 307 306 305 304 303 302 301 300
316 316 315 315 314 313 313 315 316 316 315 312 313 315 314 313 316 318 317 318 318 317 318 320 319 319 320 321 319 318 319 318 317 319 321 316 309 309 311 312 313 313 314 314 315 316 315 314 315 315 315 315 315 314 313 312 313 312 312 312 313 313 313 312 312 312 312 313 312 312 311 311 311 310 309 308 307 307 307 306 305 304 303 302 301 300
316 317 315 315 316 314 315 317 316 316 317 314 314 315 314 313 315 316 316 317 317 317 317 318 318 318 318 319 318 318 320 319 317 318 320 313 308 310 313 312 313 314 314 315 315 315 316 314 314 315 315 315 314 314 313 313 312 312 312 312 312 313 313 312 312 312 312 312 312 312 312 311 310 309 308 307 307 307 307 306 305 304 303 302 301 300
315 316 315 315 316 315 315 316 316 316 316 314 314 314 314 314 314 316 317 317 317 316 316 316 316 317 316 318 318 319 317 314 312 313 313 310 309 312 313 312 314 314 314 315 314 314 314 312 313 314 314 315 314 314 313 312 312 312 312 312 312 312 313 312 312 312 311 311 311 312 311 311 310 309 307 307 307 307 307 307 306 304 303 302 301 299
314 315 316 316 317 317 317 316 315 312 311 313 314 314 313 314 314 315 315 315 316 316 316 317 316 316 315 316 317 317 313 309 309 309 308 307 309 312 312 312 313 313 313 314 313 313 312 311 313 313 313 314 314 313 313 312 312 312 312 312 312 312 312 312 312 311 311 311 310 311 311 310 310 309 308 308 307 307 307 306 305 304 303 302 301 299
315 316 318 318 317 317 317 318 316 312 310 313 316 314 313 314 314 314 314 315 315 315 316 317 316 316 316 316 315 315 312 311 311 309 308 308 310 311 312 312 313 313 313 312 312 312 312 312 313 313 313 314 313 313 313 313 313 312 312 312 312 312 312 312 312 311 311 311 310 310 310 310 309 309 309 309 308 307 307 306 305 304 303 302 301 300
316 317 317 316 316 316 316 317 318 316 313 313 315 315 313 314 314 313 314 314 314 315 316 316 316 316 316 316 314 314 313 312 311 309 309 310 310 310 311 312 312 312 313 313 313 312 312 312 312 312 313 313 312 313 312 312 312 312 312 312 312 312 312 312 312 311 311 310 309 309 309 309 309 309 309 309 308 307 306 306 305 304 302 301 301 299
316 316 316 315 315 316 315 315 318 318 314 313 315 314 313 313 313 313 314 314 314 315 315 315 315 315 315 314 313 313 313 313 312 311 311 311 310 310 311 311 312 313 313 313 313 313 313 313 313 313 313 313 312 313 312 312 312 311 311 312 312 312 311 312 312 311 311 310 309 309 309 308 309 309 309 309 308 307 305 305 304 303 302 301 299 298
315 314 315 315 314 315 315 315 316 316 314 314 315 314 313 313 313 313 313 313 313 314 314 314 315 315 314 314 313 313 312 312 312 312 311 311 311 312 311 312 312 312 313 312 312 313 313 313 313 313 313 312 313 313 312 312 312 312 312 312 312 312 311 312 312 311 310 310 309 309 309 308 308 308 308 308 306 305 304 304 303 302 301 300 299 298
314 313 314 315 314 314 314 314 314 315 315 315 315 314 314 314 314 313 312 312 312 314 314 314 314 314 314 313 313 313 312 312 312 312 312 312 312 312 312 312 311 311 311 311 311 312 312 312 312 312 312 312 312 312 312 312 312 312 312 312 312 311 311 312 311 311 310 310 309 309 309 308 307 307 307 306 305 304 304 303 303 301 300 299 298 298
313 313 314 314 314 314 314 313 313 314 314 314 314 314 314 314 314 314 313 313 313 313 313 313 313 313 313 313 313 312 312 312 312 312 312 312 312 312 312 311 311 310 310 309 310 310 311 311 311 311 311 311 311 311 312 311 311 312 312 312 312 311 311 311 311 311 310 309 310 309 309 308 307 306 306 305 305 304 303 303 302 301 300 299 298 297
310 313 314 314 314 314 314 314 313 313 313 314 314 314 314 314 314 314 313 313 313 313 313 313 313 313 312 312 312 312 312 312 312 312 312 311 312 312 311 310 309 308 307 307 307 308 308 308 309 309 310 310 311 311 311 311 311 311 311 311 311 311 311 311 311 310 310 310 310 309 308 307 306 306 306 305 304 303 303 302 301 300 299 298 298 297
309 311 312 313 314 314 314 313 313 313 313 313 313 313 313 313 313 313 313 313 313 313 313 313 313 313 313 312 312 311 311 311 311 311 311 312 311 310 308 305 303 302 302 302 302 303 304 305 305 306 307 308 309 310 310 311 311 311 311 311 311 311 311 310 310 310 310 310 309 308 307 306 306 305 305 304 303 303 302 302 301 300 299 298 298 297
309 310 311 312 313 314 313 313 313 313 313 313 314 313 313 313 313 314 313 313 313 313 313 314 314 311 309 308 308 308 308 309 310 310 309 308 306 303 301 299 299 299 298 298 298 299 300 301 303 304 305 306 307 308 309 310 310 310 310 311 311 311 310 310 310 309 310 309 308 307 307 306 305 305 304 304 303 302 301 301 300 300 299 298 297 296
308 309 309 311 312 312 313 313 313 313 314 315 315 314 312 312 313 313 313 314 313 313 312 310 306 302 299 298 298 299 300 300 303 304 302 299 298 298 297 297 296 297 296 296 296 296 296 298 299 301 304 305 306 307 307 308 308 309 309 309 309 310 310 310 310 309 309 308 308 307 306 305 305 304 304 303 302 301 301 300 300 299 298 297 296 295
307 308 308 310 310 311 312 312 313 314 314 314 316 314 311 312 312 312 313 312 308 305 304 301 298 295 294 294 295 295 295 295 298 300 297 295 295 295 295 295 295 295 295 295 295 295 296 296 297 298 301 303 305 305 306 306 306 306 307 307 307 308 309 309 309 309 309 307 307 306 305 305 304 304 303 302 301 301 300 300 299 298 297 296 296 295
307 307 308 308 309 309 310 310 311 312 311 312 314 309 305 307 308 309 312 307 299 297 297 296 295 294 293 293 294 294 293 295 298 300 297 294 294 294 294 294 294 294 294 294 295 295 295 296 297 297 298 301 303 303 304 304 305 306 307 307 307 307 308 308 308 308 308 307 306 306 305 305 304 303 302 301 301 300 299 299 298 297 296 296 295 294
306 307 307 308 309 309 309 308 308 309 309 309 307 302 299 300 300 302 306 302 295 295 295 293 294 294 292 293 294 293 293 294 297 298 295 293 293 294 294 294 294 294 294 295 295 295 296 297 298 297 298 300 301 301 301 302 304 306 307 307 307 307 306 306 307 307 307 307 306 306 305 304 303 302 301 301 300 300 299 298 298 297 296 295 295 294
305 306 306 307 308 308 308 308 308 309 309 303 299 296 296 298 297 298 302 300 295 294 295 293 293 293 292 292 293 293 293 293 294 294 294 293 294 294 294 294 294 295 295 295 295 296 296 297 298 298 298 299 300 300 299 299 301 303 306 306 306 305 305 305 305 305 305 305 305 304 303 302 302 301 301 300 300 299 299 298 297 296 296 295 294 294
303 305 305 306 307 308 308 307 307 310 307 298 295 296 296 296 295 298 304 302 295 293 295 293 292 292 292 292 292 292 293 293 293 293 293 293 294 294 294 294 294 295 295 295 295 295 295 296 296 297 298 298 299 299 299 299 299 301 303 304 304 303 303 304 304 304 303 303 302 302 301 301 301 300 300 300 300 299 298 298 297 296 295 294 293 292
302 304 304 304 304 304 305 304 305 307 302 295 295 296 295 295 297 302 307 302 295 294 295 293 292 293 292 292 292 292 292 292 292 293 293 293 294 294 294 294 294 294 294 294 294 294 294 294 295 295 296 297 297 298 298 298 298 299 301 302 303 303 303 302 301 301 300 300 300 300 300 300 300 300 300 300 299 298 297 296 296 295 294 293 292 292
300 300 300 301 300 301 302 301 302 303 298 293 294 295 294 295 299 301 301 297 294 295 294 292 292 292 292 292 292 292 292 292 293 293 293 294 294 293 293 293 292 292 292 292 292 293 293 293 294 294 294 295 295 296 297 297 297 299 300 300 302 303 303 302 302 300 300 299 298 298 298 298 299 298 298 298 297 297 296 295 295 294 294 293 292 291
297 297 298 299 299 299 299 298 300 301 298 293 293 294 294 296 296 296 295 294 294 295 293 292 292 292 291 291 291 292 292 292 293 293 293 293 293 292 292 291 291 290 290 290 291 291 291 292 292 293 293 293 293 294 295 296 297 298 299 299 300 301 301 302 303 303 302 301 299 298 297 297 297 297 297 296 296 296 295 294 293 293 293 292 291 291
295 295 295 296 297 297 297 297 299 300 298 294 293 293 294 295 294 293 293 294 295 295 293 291 292 291 291 291 291 292 293 292 292 293 292 292 292 291 290 290 290 289 289 289 290 290 290 290 290 291 291 292 292 292 293 294 295 297 298 298 300 300 300 300 301 301 302 302 301 300 298 297 296 296 296 295 295 295 295 294 293 292 291 291 291 290
294 294 294 295 296 296 295 296 297 297 295 294 293 293 294 295 293 293 294 294 294 294 292 291 291 291 291 291 292 292 292 291 291 291 290 290 290 289 289 289 289 289 289 289 289 289 289 289 289 289 290 290 290 291 291 292 293 295 296 298 299 300 300 300 300 299 300 300 300 301 300 299 298 297 296 295 295 295 294 294 293 292 291 291 291 290
294 295 294 294 294 294 294 294 295 295 294 293 293 294 294 293 292 293 293 293 294 293 291 291 291 291 291 292 292 291 291 290 290 289 289 289 288 288 288 288 288 288 288 288 288 288 288 288 288 289 289 289 289 289 289 290 291 292 294 295 297 298 299 299 299 299 299 299 299 299 300 300 300 299 298 296 296 295 295 294 293 292 291 291 290 290
293 293 293 293 293 293 293 293 293 293 293 292 292 292 292 291 292 292 292 293 294 293 291 291 291 291 291 291 290 290 289 289 289 288 288 288 287 287 287 287 287 287 287 287 287 287 287 287 287 287 288 288 288 288 288 289 290 290 291 292 294 295 297 298 298 298 299 300 299 298 298 299 299 299 298 298 298 297 296 295 294 293 292 291 290 289
292 291 292 292 292 291 291 291 291 291 291 291 291 291 290 291 291 291 291 292 293 292 290 291 291 291 291 290 289 288 288 288 287 287 287 287 287 287 286 286 286 286 286 286 286 286 286 286 286 286 286 286 287 287 287 288 288 289 290 290 291 292 293 295 296 297 298 299 299 299 298 298 298 298 298 298 299 298 297 296 295 293 292 292 291 289
291 291 292 292 291 290 290 290 290 290 290 290 290 290 290 291 291 290 290 291 291 290 290 290 290 290 289 289 288 287 286 286 286 286 286 285 285 285 285 285 285 285 285 285 285 285 285 285 285 285 285 285 285 285 286 286 287 287 288 289 289 290 290 291 293 295 296 297 298 299 299 298 298 298 297 297 298 298 298 297 296 295 295 295 294 292
291 291 292 292 291 290 290 290 289 289 289 289 290 290 290 290 289 289 289 290 290 290 289 289 289 289 288 287 286 285 285 285 285 285 284 284 284 284 284 284 284 284 284 284 284 284 284 284 284 284 284 285 285 285 285 285 286 286 286 287 288 288 288 289 290 291 293 295 296 297 298 298 298 298 297 297 297 297 296 295 295 295 294 294 293 291
290 291 291 291 290 290 290 290 290 290 289 289 289 289 289 289 289 289 289 289 289 288 288 287 287 287 287 286 285 284 283 284 283 283 282 282 283 283 283 283 283 283 283 283 283 283 283 283 283 283 283 284 284 284 284 284 285 285 285 286 286 287 287 288 288 289 290 291 293 295 296 296 297 297 296 296 296 295 293 292 291 291 290 289 289 287
291 291 291 290 290 290 290 290 290 289 289 289 289 290 289 289 288 288 288 287 287 286 285 284 284 284 285 285 284 283 282 282 283 282 282 282 282 282 282 282 282 281 282 282 282 282 282 282 282 282 282 283 284 284 284 284 284 285 285 285 285 285 286 286 287 287 288 289 290 292 294 295 295 295 294 293 293 292 291 289 289 288 287 286 286 285
Wind_Speed
12 6 3 7 12 15 13 12 16 15 10 9 7 6 8 8 9 11 15 10 4 5 8 12 17 17 18 19 18 25 30 25 25 25 27 32 36 39 41 42 45 47 50 52 51 50 48 47 46 43 42 41 40 40 41 42 43 43 43 43 43 43 43 44 45 44 43 42 42 43 44 45 46 45 45 43 42 41 39 38 37 37 36 36 35 34
8 7 8 15 18 15 10 11 14 11 8 8 6 8 9 8 12 14 13 12 5 5 9 11 16 18 17 18 17 19 18 18 23 22 26 34 35 37 39 43 48 49 51 52 52 53 50 48 45 42 41 39 40 39 40 42 43 44 44 44 44 43 44 44 45 45 44 43 42 41 41 43 45 46 45 45 44 43 41 40 39 39 38 37 37 36
4 6 13 19 14 7 6 6 7 9 8 7 6 7 8 7 11 12 10 13 5 4 8 10 14 16 14 16 17 16 15 21 31 30 33 36 32 35 38 42 47 48 50 52 52 53 51 48 44 40 40 39 39 38 39 41 42 44 45 45 45 45 45 44 44 44 43 42 42 41 40 41 42 44 45 45 44 43 43 43 42 41 40 39 38 37
6 7 16 18 8 6 9 5 4 6 6 7 7 6 8 8 8 8 6 8 4 3 7 9 12 12 11 13 14 20 26 27 33 36 39 40 35 38 43 43 45 46 49 52 52 51 49 47 43 41 41 40 38 37 38 41 43 45 45 45 46 45 45 43 43 43 43 42 42 42 41 40 40 42 43 44 45 45 45 45 44 43 42 40 39 38
10 8 11 11 8 9 11 8 5 6 7 8 9 8 11 12 12 11 6 6 6 5 5 7 13 11 10 15 13 17 25 24 28 31 33 40 41 43 45 45 47 50 52 53 52 50 48 46 43 41 39 38 37 37 38 40 42 44 44 45 45 44 43 42 42 43 44 44 44 43 42 42 42 43 44 46 48 48 48 47 46 45 44 42 41 39
12 10 7 7 7 10 10 8 7 8 9 9 8 13 18 16 13 13 9 8 6 6 4 2 9 9 7 14 13 11 12 14 18 19 24 36 42 41 42 46 51 53 54 53 51 49 47 46 43 40 37 37 37 37 36 37 40 42 43 44 44 43 42 42 42 43 45 45 45 45 44 44 44 45 47 48 49 49 49 48 48 46 45 43 42 41
7 9 9 8 9 10 8 7 8 11 9 9 6 13 17 14 10 12 9 6 3 5 4 2 2 9 6 7 10 10 9 11 12 11 17 28 35 37 41 46 50 50 51 50 47 45 44 44 42 39 38 37 37 35 34 36 38 41 42 42 42 41 41 42 42 44 45 46 46 45 44 44 44 44 45 46 46 47 46 47 47 46 46 44 43 42
4 6 8 9 9 7 6 9 10 11 8 8 4 8 11 9 9 8 6 5 4 4 4 2 4 8 14 7 10 12 11 10 12 12 15 22 30 36 39 43 45 46 47 45 43 42 40 39 38 37 36 34 33 32 33 35 37 40 41 41 40 40 41 41 42 43 45 45 45 45 45 44 44 43 43 42 43 44 46 47 47 46 45 44 43 43
4 6 9 10 7 5 9 10 8 12 8 7 3 6 7 6 5 4 4 5 2 4 4 4 5 3 14 8 8 9 9 8 13 16 16 18 26 33 37 42 43 44 44 43 42 41 38 36 34 32 29 26 27 29 31 33 35 38 39 39 39 40 40 41 41 42 43 43 43 44 45 45 44 44 43 43 43 44 45 46 47 46 46 45 44 44
1 3 7 9 7 7 10 6 7 13 9 4 6 5 4 3 3 5 3 1 2 5 6 6 6 3 14 9 5 4 5 8 12 14 15 16 22 29 35 41 43 42 43 42 41 39 37 34 31 27 23 21 23 26 28 32 34 36 37 37 38 39 40 40 40 41 41 43 44 44 45 45 44 44 44 45 45 46 47 47 47 47 46 45 45 44
2 2 2 6 7 6 4 1 3 8 6 4 6 5 6 5 5 4 2 4 2 8 6 10 12 7 9 6 5 4 4 8 9 9 11 13 18 27 34 39 39 37 39 40 39 37 35 32 28 23 19 19 22 26 30 33 34 35 35 36 37 37 38 39 39 40 41 42 43 44 44 44 44 45 45 46 47 47 48 48 48 48 47 46 45 45
3 1 2 4 5 5 6 3 2 2 3 5 4 4 3 4 4 5 4 4 1 9 6 12 13 10 10 6 2 5 6 5 7 8 10 11 16 27 32 33 32 31 35 37 36 34 33 31 27 22 20 20 24 28 31 33 33 34 34 34 36 37 38 38 39 39 40 42 43 43 44 44 45 45 45 45 46 47 47 47 48 47 47 47 46 46
4 6 5 2 4 7 5 2 3 5 3 5 4 5 1 4 3 3 4 1 4 9 5 8 8 7 12 7 3 10 10 7 8 10 13 12 15 24 28 28 27 27 33 35 33 32 32 31 27 24 22 23 26 29 30 31 33 33 34 34 35 36 37 38 39 39 40 41 42 43 44 44 45 46 45 45 45 46 46 47 47 47 46 46 46 46
4 5 4 3 4 9 10 5 3 3 4 7 5 6 5 3 2 3 4 3 5 7 4 4 6 5 8 4 8 15 15 13 12 15 21 21 21 25 26 27 27 27 34 35 30 29 30 30 27 24 23 24 25 28 29 30 32 33 34 35 35 36 37 38 39 39 40 41 41 43 44 45 46 46 45 45 44 45 46 46 47 46 45 45 44 44
4 8 5 7 4 9 13 12 8 4 4 7 5 6 6 5 4 4 5 6 6 5 4 1 5 5 4 3 9 12 10 10 13 20 26 27 28 28 27 30 32 32 36 33 27 26 28 28 26 24 24 24 25 27 28 29 31 33 34 35 35 34 35 37 38 39 40 40 41 44 45 46 46 46 45 44 44 45 45 45 46 46 45 45 43 42
4 10 7 6 3 11 13 10 7 7 2 4 4 4 4 5 6 4 7 7 2 3 4 3 5 6 4 6 8 8 8 9 12 16 17 20 28 30 30 35 37 38 40 35 28 27 28 26 24 24 24 25 25 26 27 28 30 31 32 35 35 33 34 36 38 39 39 41 43 45 45 46 46 46 46 45 45 45 45 45 46 45 44 44 43 42
6 8 3 3 1 6 8 5 6 5 3 2 4 4 3 3 6 5 7 3 2 5 6 3 6 6 5 9 9 8 11 11 9 9 8 15 26 29 31 38 41 42 42 37 32 29 27 24 25 25 25 26 27 26 26 26 27 28 30 34 35 35 37 38 37 38 40 42 45 45 46 46 47 47 46 46 46 46 46 46 46 45 44 43 43 42
7 8 4 5 4 4 2 2 1 1 4 6 4 6 2 2 2 3 2 2 2 8 7 5 11 9 6 8 4 1 4 8 8 9 10 16 22 23 28 36 40 41 40 36 32 29 25 24 26 26 26 27 28 26 24 23 24 26 29 32 35 36 37 36 36 38 41 43 45 45 46 46 46 46 46 46 47 48 48 48 46 46 45 43 43 42
4 7 6 3 3 1 3 2 2 3 1 4 3 2 3 1 3 3 3 3 6 8 7 11 16 11 8 10 6 4 7 10 11 10 10 12 13 15 24 34 39 40 40 38 33 29 27 28 28 27 26 26 28 27 24 24 25 26 28 32 36 36 36 37 39 41 42 43 45 45 45 45 45 46 47 48 49 50 50 49 47 47 46 44 43 42
1 4 6 1 2 2 3 1 4 2 2 2 1 1 1 2 4 3 3 3 5 9 8 11 14 10 9 7 6 8 10 11 11 8 7 9 12 18 27 33 35 35 35 36 35 32 32 33 30 27 27 26 26 27 25 24 23 24 27 32 36 38 39 41 42 43 43 44 44 45 46 46 46 47 48 48 49 51 51 50 49 48 47 45 44 43
3 3 6 2 3 2 1 3 5 5 3 2 2 3 3 2 1 1 2 2 4 8 8 9 10 10 8 3 6 9 8 9 9 6 6 8 12 20 24 27 31 31 30 33 33 32 37 38 29 27 30 28 26 26 25 24 23 25 29 32 34 38 40 42 42 42 43 43 44 46 48 48 48 48 49 50 50 51 51 51 52 50 48 47 45 43
1 3 5 4 4 4 3 3 6 7 7 6 6 7 7 7 4 4 6 5 4 6 7 9 9 10 8 2 3 6 4 4 5 4 5 9 12 16 20 24 28 28 29 32 32 32 39 38 29 29 33 30 28 27 25 25 26 26 28 28 31 37 42 43 42 41 40 41 43 46 48 50 51 51 52 51 51 50 50 52 53 52 51 48 46 44
4 1 4 6 6 7 11 9 5 8 8 5 4 5 6 6 5 7 10 7 5 5 6 8 9 9 8 4 3 5 4 5 7 5 5 11 16 18 21 26 27 26 29 35 36 37 38 33 29 32 32 28 30 30 27 26 26 25 25 25 30 37 42 44 43 42 42 44 45 46 49 52 53 52 53 53 52 50 49 51 52 54 53 50 47 46
3 2 3 5 5 6 12 14 7 3 3 3 4 5 6 6 7 9 8 4 5 6 6 9 10 7 7 8 7 7 6 7 10 8 6 11 18 18 18 22 24 24 28 32 33 31 30 27 26 28 26 24 28 29 29 29 28 27 26 27 31 36 41 45 46 46 47 49 49 48 51 54 54 53 53 52 51 50 50 50 51 53 53 51 50 48
4 2 2 4 6 6 6 9 8 3 3 3 4 6 9 9 8 7 4 1 5 9 10 11 11 6 7 11 11 12 12 9 9 11 12 14 18 16 15 20 24 25 26 28 28 25 22 22 22 23 23 24 26 28 31 31 30 30 31 33 37 41 44 47 49 49 48 50 51 50 52 55 56 55 53 51 51 51 51 51 51 52 52 52 51 50
5 4 5 5 9 9 8 8 6 3 2 3 4 7 11 14 14 10 5 5 8 11 12 12 11 9 10 14 18 22 22 17 15 17 18 19 21 20 20 25 29 31 32 36 38 36 34 33 33 32 33 33 31 30 31 31 32 33 36 41 45 47 49 51 53 52 49 49 51 51 53 55 57 56 54 52 51 52 52 52 52 52 51 51 52 51
2 3 9 12 13 12 13 13 7 3 4 4 5 9 10 11 13 10 7 9 10 10 12 12 13 15 14 15 21 25 24 21 19 17 18 23 26 24 24 27 31 35 40 41 41 43 43 44 45 45 44 42 41 38 34 34 37 40 44 48 50 50 51 53 55 54 51 49 50 51 53 55 56 56 55 53 51 51 53 53 53 52 51 51 51 52
1 4 12 16 18 18 17 19 15 10 12 12 11 12 11 9 10 9 10 12 10 10 12 12 15 17 16 16 20 23 25 24 20 16 18 25 28 27 27 30 32 37 41 40 38 39 40 44 48 49 45 42 42 43 41 42 46 49 51 51 50 52 53 54 54 53 51 49 50 51 53 54 54 55 56 54 52 52 53 54 54 53 51 50 51 52
3 8 13 15 18 19 18 20 20 18 18 18 17 18 18 17 16 15 16 16 14 13 14 14 16 18 16 15 18 21 23 23 23 25 29 32 33 33 33 34 34 37 39 38 37 37 39 44 47 48 44 41 42 46 48 51 52 52 51 48 48 50 51 49 48 49 50 51 51 52 53 53 54 55 56 55 53 52 52 53 54 52 51 51 50 50
4 7 12 15 18 19 19 21 21 21 20 19 20 22 23 23 23 22 22 21 20 20 19 19 21 21 17 16 20 24 28 29 32 38 40 37 37 37 38 37 37 36 34 32 34 37 40 44 45 46 46 46 48 51 53 53 52 49 47 45 45 47 46 45 45 47 50 52 53 52 52 53 53 55 55 55 53 51 51 53 53 52 51 50 49 49
6 7 11 14 14 15 19 21 20 21 22 22 24 24 24 25 25 24 22 20 20 22 24 24 24 20 17 20 23 28 33 32 29 31 34 38 43 44 38 30 23 22 23 24 26 29 32 35 39 43 46 48 49 50 50 50 48 45 44 43 44 45 46 47 48 49 51 53 52 52 52 52 53 54 54 54 52 51 51 52 52 51 50 49 49 49
4 4 6 9 9 9 13 18 20 21 22 24 24 24 25 25 23 21 21 19 19 21 22 22 19 16 17 21 22 22 24 23 20 23 32 40 41 32 22 21 25 27 28 29 30 30 30 30 31 35 39 43 45 46 47 46 44 42 42 43 44 46 48 50 50 51 52 52 52 51 51 51 52 52 53 52 51 50 50 51 51 50 50 49 49 49
3 3 4 6 7 7 10 16 18 17 16 16 17 23 27 26 23 20 18 18 20 19 18 17 15 11 10 11 12 13 13 13 15 18 19 21 23 24 24 25 26 28 30 33 34 35 35 35 33 31 31 34 38 40 41 41 41 42 44 45 47 49 49 50 50 50 51 51 51 51 50 50 51 51 51 51 49 49 49 49 50 49 49 49 48 49
5 6 6 5 5 7 10 12 12 12 11 7 8 16 23 24 24 23 21 23 25 20 12 8 5 9 12 11 11 12 12 17 20 15 20 26 29 29 28 28 30 31 34 36 37 37 38 39 38 35 31 29 31 34 37 40 42 43 45 48 50 50 48 47 47 48 49 49 50 49 49 49 50 50 50 49 48 48 48 48 48 48 48 48 48 49
9 9 7 5 6 7 8 8 9 9 6 3 3 9 16 21 23 24 25 21 13 7 7 9 11 13 11 10 12 12 17 29 25 12 26 34 33 32 33 34 34 35 37 38 39 39 39 40 40 38 36 33 30 28 29 32 36 37 39 43 47 47 45 45 46 47 47 47 47 46 47 47 48 48 48 47 47 47 47 47 47 47 48 48 48 48
11 10 8 7 7 8 8 9 11 10 6 3 2 2 5 8 9 13 15 5 11 13 11 11 11 10 10 12 16 18 25 31 18 5 23 38 37 34 35 35 37 37 36 37 39 38 39 40 40 39 37 36 35 31 29 29 29 28 29 32 37 39 41 42 43 44 44 44 43 43 44 45 46 47 46 46 46 46 46 46 46 47 47 47 47 47
10 9 7 7 7 8 11 12 12 14 12 7 3 6 8 5 7 8 6 3 12 10 8 9 9 10 11 12 17 24 28 24 9 6 27 40 37 35 35 34 37 37 36 38 38 37 38 38 38 37 36 35 35 35 34 33 31 26 23 25 29 32 35 38 40 40 40 40 40 41 42 43 44 44 44 44 44 44 44 45 45 46 47 47 47 47
7 7 6 7 6 6 11 12 11 13 10 3 5 7 7 9 10 8 5 2 7 8 8 8 8 10 11 11 17 23 23 16 7 11 28 38 36 35 36 35 37 37 36 37 38 38 39 38 37 37 36 35 35 36 36 36 34 30 24 22 25 28 31 33 36 37 38 38 38 39 40 41 42 42 42 42 42 42 43 43 44 45 46 46 46 46
3 6 6 7 6 6 10 11 10 9 3 4 7 9 13 19 15 6 4 3 5 7 6 8 9 8 7 9 14 16 13 10 6 11 25 34 33 33 34 35 35 35 35 36 37 38 39 38 38 37 36 36 36 36 37 36 35 34 30 26 26 27 28 29 31 33 35 36 36 37 38 38 38 39 39 39 39 40 41 42 43 44 44 44 44 44
5 3 4 5 7 8 10 10 9 4 2 4 7 9 18 25 17 4 3 2 7 6 4 8 9 8 7 9 10 8 6 6 10 17 28 32 29 29 30 31 33 35 36 37 38 39 40 40 39 39 38 37 36 35 37 37 36 34 33 32 29 25 25 27 28 29 31 32 33 34 35 35 35 35 36 36 37 38 39 40 41 41 41 42 42 43
2 2 3 5 7 9 10 10 8 3 3 3 8 12 19 19 9 2 4 9 10 7 8 12 11 9 10 11 9 7 9 13 18 25 30 28 26 28 28 28 32 35 36 39 39 40 41 42 41 40 39 38 36 35 36 37 36 34 33 33 31 26 25 26 26 25 26 27 29 29 30 31 32 32 33 35 36 36 37 38 39 39 39 40 41 42
2 2 3 4 4 5 6 6 8 5 3 7 14 17 16 8 1 4 8 12 11 9 12 16 12 11 14 14 13 14 16 18 20 22 24 24 25 29 30 31 35 36 37 39 39 38 40 42 41 41 40 40 39 37 35 35 35 34 32 31 31 30 27 27 27 25 25 25 26 26 26 27 28 30 31 32 34 34 34 36 38 39 38 38 40 41
3 4 5 4 4 5 5 6 7 5 3 14 18 13 8 3 5 10 10 11 12 13 15 16 14 14 17 18 17 16 16 16 17 18 21 25 26 28 31 33 35 36 37 38 38 37 37 37 39 40 39 39 40 38 36 35 34 33 32 30 30 30 29 28 29 29 27 27 27 25 25 26 27 28 30 31 32 32 33 35 37 38 38 39 39 40
3 4 5 4 3 4 4 5 3 3 11 20 15 4 4 8 13 14 11 11 14 15 14 15 15 17 17 17 17 16 14 16 18 18 21 26 28 30 33 33 33 34 35 35 35 35 35 36 38 38 37 37 38 38 36 34 33 32 31 29 28 28 28 29 31 31 31 31 30 28 26 26 26 28 29 31 32 32 33 35 37 38 39 40 40 41
4 4 4 4 4 4 5 7 9 10 16 22 15 8 12 19 21 18 16 17 19 17 14 14 17 19 19 17 17 17 18 19 20 22 25 28 29 30 31 32 33 33 33 33 33 33 34 35 37 38 39 38 36 36 35 33 32 32 32 29 28 28 28 28 29 31 33 34 33 31 30 28 28 28 29 30 32 33 34 36 37 39 40 41 42 44
6 9 7 4 4 6 7 11 13 11 14 22 22 19 22 26 24 21 19 21 21 19 16 16 18 20 20 18 17 20 21 22 23 26 27 28 29 30 31 32 33 32 31 31 32 32 33 34 36 38 40 40 38 37 36 34 32 33 33 31 29 29 29 28 28 30 32 34 35 34 33 32 30 30 31 31 32 33 35 36 37 39 40 42 44 46
7 11 9 4 4 7 7 9 9 10 15 22 27 29 32 28 21 17 19 21 21 19 19 20 20 22 22 20 20 23 24 25 26 28 28 28 28 30 31 32 32 32 31 32 33 33 34 34 36 38 40 42 41 39 38 37 35 34 34 32 30 30 31 31 32 32 33 35 36 36 36 35 34 33 34 34 34 35 37 38 38 41 42 44 46 49
6 6 5 5 7 7 7 10 14 19 24 28 30 31 30 25 20 19 20 20 19 20 22 22 22 22 23 24 24 24 26 29 30 30 30 30 30 31 32 32 32 31 32 32 33 34 35 36 37 38 40 42 42 41 40 40 39 37 36 35 33 33 33 34 34 35 37 38 39 39 39 39 39 38 37 37 37 39 41 41 42 43 44 44 46 48
6 3 4 6 6 6 8 12 15 18 21 24 27 27 25 24 23 22 21 21 21 22 23 22 22 23 24 26 27 25 26 31 33 31 31 32 34 34 34 34 34 34 34 35 36 35 36 38 39 40 41 43 44 43 42 42 42 41 40 39 38 37 37 36 35 36 38 40 42 43 42 42 43 43 42 41 41 42 44 45 45 46 46 46 46 47
6 6 7 6 5 7 9 12 14 12 9 14 23 27 28 27 24 21 20 20 20 19 19 20 23 26 27 28 29 28 28 31 33 32 32 34 35 35 35 35 35 37 38 39 40 39 40 40 41 41 43 45 46 45 45 46 47 47 46 44 42 41 41 40 39 38 39 41 43 45 45 45 46 46 45 45 44 45 46 47 48 48 48 48 47 47
11 10 9 7 7 10 14 19 21 16 11 17 29 34 30 25 21 20 21 19 17 17 18 20 23 27 30 32 32 31 31 34 35 35 35 36 37 37 37 37 38 39 41 42 42 43 43 43 42 42 43 45 48 49 50 51 52 52 52 51 48 45 45 44 42 41 41 42 43 44 45 46 47 47 47 47 46 46 48 48 49 49 49 48 47 46
Wind_Direction
175 160 147 193 217 225 219 201 216 232 233 240 252 260 255 255 262 254 262 265 199 231 242 232 249 253 255 258 256 258 261 263 262 262 260 259 259 260 262 263 263 262 265 270 270 268 265 264 265 264 262 259 255 253 251 250 249 248 245 242 240 237 235 234 232 230 228 227 225 224 225 226 227 226 227 229 230 231 232 233 234 235 235 236 237 237
171 183 206 213 220 226 223 211 223 238 246 251 251 264 263 252 263 258 264 276 216 204 252 240 254 258 252 258 259 254 255 258 256 256 258 257 257 258 259 261 262 263 266 269 269 268 267 266 265 263 261 257 255 253 250 250 249 247 245 243 241 238 235 234 233 233 231 230 229 228 228 228 227 227 229 230 231 232 233 233 234 235 235 235 236 237
192 214 225 224 228 245 249 219 221 238 237 243 241 259 266 253 272 269 255 267 241 183 257 252 255 259 251 254 259 255 248 250 255 254 256 258 257 257 257 258 261 263 264 266 268 269 268 266 265 262 261 259 258 255 252 251 248 245 243 241 239 236 235 234 234 234 234 234 233 232 232 231 229 230 231 232 233 233 234 235 234 234 235 235 236 236
219 228 231 231 230 241 254 235 204 250 240 226 227 245 261 250 264 268 246 268 261 198 260 269 264 263 258 257 256 254 252 253 257 256 258 260 257 256 257 259 261 262 264 265 267 268 268 266 264 261 261 260 257 252 249 246 244 242 241 240 238 236 235 234 234 235 234 233 232 231 232 232 232 232 232 232 233 234 234 235 235 235 235 234 235 236
238 237 227 219 206 214 242 244 215 253 255 225 214 224 249 246 243 252 274 313 298 265 274 285 283 273 236 243 250 249 251 254 256 255 257 259 257 257 259 259 259 259 261 262 265 267 267 266 265 263 262 259 255 251 248 247 245 243 241 239 237 236 235 234 234 234 232 231 230 229 228 228 230 231 231 231 232 232 233 234 235 236 235 234 235 235
248 247 216 180 196 210 223 240 216 220 252 251 214 217 238 246 250 259 284 321 309 287 294 295 291 285 202 217 238 244 246 248 249 248 250 254 255 256 256 257 258 258 259 260 263 265 266 266 266 264 261 256 253 252 251 249 246 244 242 239 237 237 236 234 233 232 232 231 230 229 228 227 227 227 228 229 231 231 232 234 234 235 235 234 234 235
243 231 201 176 200 203 203 243 225 203 240 273 226 214 233 244 253 257 270 294 268 263 289 92 271 284 265 215 221 231 237 243 247 246 246 250 253 251 251 255 257 259 260 259 261 264 265 265 263 262 261 257 255 254 251 247 244 243 241 239 238 237 236 234 232 231 231 232 232 232 233 233 232 231 232 232 233 234 235 236 236 236 235 234 234 234
198 202 196 193 199 186 188 238 228 188 213 268 225 194 214 228 237 233 231 239 239 279 294 140 140 277 284 249 193 206 218 235 248 249 249 247 247 249 250 254 257 259 261 261 263 266 267 264 262 264 264 261 258 253 248 244 242 241 239 238 237 236 236 234 232 232 233 233 234 234 235 236 237 238 239 238 237 238 238 238 239 238 237 236 235 234
167 185 201 192 184 190 206 225 200 158 195 251 169 153 178 195 207 168 175 224 280 341 288 200 136 258 280 261 171 194 209 222 239 239 244 244 243 246 249 254 257 260 263 264 265 268 268 264 265 268 267 262 256 250 247 245 243 241 239 237 236 236 235 234 234 234 234 236 236 236 236 237 238 239 240 241 241 241 240 240 240 239 238 237 236 235
192 185 192 171 174 216 218 222 163 161 203 226 118 101 82 83 74 96 125 131 40 306 259 195 157 219 280 276 144 161 208 218 232 234 240 245 247 249 250 254 259 262 265 266 267 268 267 266 268 269 264 254 247 244 244 244 242 240 238 236 236 235 235 235 234 235 235 236 236 236 237 238 239 238 238 239 239 240 241 241 241 240 239 237 236 235
234 92 136 175 196 206 177 125 150 171 188 128 100 58 35 23 27 58 46 70 37 281 238 184 181 186 272 286 133 167 227 219 222 230 246 254 255 254 253 255 260 265 268 266 265 266 265 267 267 261 251 242 238 237 237 239 239 238 238 237 236 236 235 235 234 234 234 235 236 236 237 238 238 238 238 238 238 239 239 240 240 240 239 238 237 236
254 163 211 209 192 143 103 92 31 53 115 112 98 74 34 333 8 29 350 58 204 264 222 185 185 183 234 265 154 239 270 242 216 219 237 244 249 252 254 257 259 266 271 267 263 263 263 265 264 253 238 229 229 231 233 236 236 236 236 235 235 234 234 234 233 233 233 234 235 236 237 237 238 238 238 238 239 240 240 240 240 239 239 238 237 236
274 224 208 188 187 165 133 95 358 357 74 112 107 115 101 301 344 354 309 104 220 255 228 182 178 205 241 252 248 266 277 250 218 215 228 232 240 246 250 253 256 264 273 271 265 264 263 263 263 252 234 225 226 228 231 234 234 234 234 232 232 232 231 231 231 231 232 232 233 234 235 236 237 238 239 240 241 242 242 243 242 241 239 238 237 236
297 276 176 134 253 194 166 171 231 268 173 161 153 153 171 217 238 262 262 259 258 264 261 172 168 241 278 269 221 237 248 239 221 218 227 231 236 243 247 250 252 260 272 273 269 267 264 262 261 251 235 229 227 226 228 233 234 233 233 231 230 230 231 231 231 231 231 231 231 233 234 235 236 237 237 238 239 241 243 244 244 244 243 242 241 240
256 287 195 166 220 182 180 205 204 147 158 189 157 144 180 186 182 205 228 252 268 283 295 193 171 227 285 271 216 223 252 262 236 228 232 234 237 243 253 256 254 255 264 270 274 274 266 260 257 247 237 233 229 226 228 232 233 233 234 231 228 228 230 230 230 230 230 230 231 233 235 236 237 237 237 238 239 241 242 244 245 245 245 245 245 244
223 270 224 175 150 160 182 212 177 117 138 223 122 121 217 200 176 214 248 240 231 307 285 223 216 239 254 258 242 241 271 272 246 238 243 244 244 246 252 257 256 253 256 264 274 275 265 256 250 243 240 237 229 226 229 232 233 233 234 231 228 228 230 231 230 229 228 229 232 233 235 235 236 237 237 237 238 239 241 244 245 246 246 247 246 245
238 270 222 143 144 177 188 197 161 159 198 180 131 180 224 157 157 220 269 282 95 266 265 214 238 273 302 279 254 227 239 250 257 261 257 249 248 247 248 251 253 252 254 260 270 273 266 255 245 239 243 243 233 227 229 233 235 236 237 234 230 229 231 232 232 231 230 231 233 234 235 236 237 237 236 235 236 238 240 243 245 246 246 246 246 245
245 269 238 171 212 238 203 86 55 211 147 131 176 209 163 73 143 176 244 330 283 256 266 256 257 270 286 282 292 101 250 269 270 253 239 240 243 245 248 251 252 255 257 263 270 272 265 254 243 236 243 247 239 231 232 237 238 238 240 240 236 233 234 235 235 234 233 233 235 235 236 237 238 238 238 237 237 238 240 242 244 245 245 245 245 245
240 261 265 179 183 287 42 65 315 328 97 133 193 204 115 169 224 165 173 217 237 245 260 266 269 268 246 255 285 296 277 277 269 254 244 248 249 249 253 254 253 255 259 264 270 274 267 255 241 233 239 247 242 234 233 240 242 240 242 243 241 239 239 238 237 235 235 236 238 238 238 239 239 240 241 239 238 239 240 241 243 244 244 245 245 244
323 256 268 25 30 339 29 191 206 237 335 17 4 339 34 196 192 182 180 173 221 240 251 261 270 270 249 242 242 240 244 251 257 259 245 242 245 246 249 253 256 258 261 263 267 274 274 261 244 234 239 245 242 236 234 239 246 250 250 246 243 243 243 241 239 238 238 239 241 242 240 240 241 241 242 241 240 240 241 241 243 244 244 244 244 244
4 278 266 330 332 259 170 211 194 180 191 194 220 237 253 232 180 250 244 167 222 241 245 252 257 265 264 224 206 231 239 238 241 249 253 250 252 254 257 260 264 267 269 270 272 278 277 268 254 245 247 244 239 238 238 242 250 255 256 253 249 246 246 245 242 240 242 243 245 245 243 242 241 241 241 241 241 242 243 243 243 244 244 244 244 244
17 277 276 296 286 258 259 226 188 197 204 189 201 214 216 218 217 257 249 219 217 238 245 249 251 261 266 219 196 237 245 255 249 239 272 284 282 285 290 286 282 282 285 285 283 279 276 272 262 252 250 243 236 235 238 244 251 256 261 265 260 252 249 248 245 243 245 247 248 248 247 244 242 241 241 241 242 243 244 245 244 243 243 243 243 243
160 177 272 271 266 276 294 288 220 214 231 225 230 230 227 223 210 232 244 238 236 237 243 253 252 255 257 262 306 275 266 296 279 240 253 283 292 302 301 293 288 286 288 287 280 276 276 274 264 259 259 253 244 239 240 248 256 261 268 274 271 263 256 252 248 246 246 246 248 251 250 246 242 242 242 242 242 243 245 246 245 244 243 243 243 242
159 134 244 265 280 282 290 293 279 218 205 241 258 235 231 231 218 230 246 258 260 248 249 260 256 251 264 284 302 286 283 305 295 282 278 287 296 301 298 295 290 282 283 285 283 281 282 277 272 274 274 265 255 249 248 253 261 266 269 274 277 274 267 257 252 249 247 246 247 250 251 247 243 242 242 243 244 244 244 246 246 245 244 243 242 242
194 184 189 255 280 275 278 287 282 258 176 211 230 219 224 230 230 244 262 272 252 243 242 258 261 254 271 286 292 287 289 297 293 289 284 281 288 291 292 297 294 288 289 293 293 292 291 292 296 295 284 273 267 262 257 258 264 270 275 278 279 279 274 263 253 249 249 248 247 249 251 249 245 242 243 245 246 244 244 245 246 246 245 243 242 241
197 202 188 229 254 256 258 255 250 247 212 209 228 224 222 222 224 236 248 242 241 235 231 244 257 255 263 277 281 279 280 279 275 277 278 276 277 278 279 282 283 284 285 285 288 291 293 297 299 292 283 276 271 265 260 261 268 274 280 284 283 280 276 268 256 249 249 250 248 250 253 252 247 244 244 245 247 246 244 244 246 246 245 243 242 240
182 199 202 225 234 237 249 247 235 225 223 226 240 233 228 227 228 230 238 240 244 247 240 238 249 255 255 262 270 274 277 277 276 276 277 278 277 277 279 281 282 284 282 279 280 282 285 287 287 284 281 276 273 271 270 273 280 284 286 287 284 279 276 270 260 251 249 251 251 252 255 255 251 248 246 245 247 247 245 244 245 245 244 243 241 239
163 230 216 230 235 235 245 249 247 250 247 248 251 248 249 248 236 230 237 241 247 257 253 242 244 253 252 250 259 268 274 275 274 275 276 278 280 281 282 283 282 280 278 276 274 273 273 274 275 275 273 269 269 273 277 282 284 285 286 284 281 278 275 271 263 255 252 253 254 255 257 257 255 250 246 246 246 246 245 244 244 244 243 242 241 240
204 243 232 237 242 239 242 247 248 249 248 247 249 251 253 252 247 244 243 244 244 248 255 253 247 249 250 248 253 260 267 273 279 281 280 279 282 284 285 283 279 274 272 272 271 269 270 270 271 271 269 267 268 273 277 280 281 282 282 280 278 278 276 272 265 258 254 254 256 258 260 259 255 249 245 244 245 245 245 244 243 243 242 242 241 241
200 231 230 238 247 244 239 241 242 245 248 248 247 247 249 250 250 249 248 249 249 249 255 257 254 254 252 249 251 252 257 264 273 278 282 285 286 284 282 279 277 278 280 281 280 278 276 275 274 273 272 272 274 276 277 278 279 279 279 277 276 277 276 272 267 261 257 258 261 262 261 257 253 248 244 243 244 245 244 243 242 242 241 241 241 240
215 221 224 236 249 244 239 240 239 239 244 246 246 246 247 249 250 250 251 250 250 252 252 251 254 259 255 251 250 250 254 260 267 275 281 282 281 282 286 295 309 324 331 330 321 311 303 295 288 284 281 279 280 281 281 282 281 277 275 274 273 273 274 272 268 265 263 264 265 263 258 254 251 247 244 243 243 244 243 241 241 241 241 240 239 239
246 248 239 247 257 242 236 240 240 240 241 242 243 244 244 245 244 245 245 243 245 250 253 253 253 252 252 254 254 253 258 259 260 266 269 272 280 295 322 357 10 9 3 360 356 351 345 335 320 306 297 292 290 289 287 287 286 280 276 276 274 273 272 270 268 267 267 267 266 261 256 253 249 245 243 243 243 244 243 241 240 240 240 239 238 238
247 275 266 256 260 250 240 241 243 245 242 238 234 234 236 240 242 246 249 250 247 246 249 254 254 262 285 298 303 301 292 280 278 284 287 299 326 354 12 15 8 1 359 357 356 356 355 353 347 335 318 303 295 293 293 292 289 283 281 282 280 276 273 272 270 268 267 266 263 259 255 252 248 245 243 243 244 243 241 240 239 240 240 239 237 236
241 259 264 260 268 270 266 263 258 246 242 242 221 222 231 236 240 245 247 247 247 248 258 277 321 1 11 16 0 343 330 317 317 348 26 24 14 6 360 357 356 353 351 350 350 351 352 351 350 349 342 325 304 295 294 292 288 284 283 282 279 275 273 271 270 268 266 263 260 257 254 250 246 244 244 243 243 242 240 239 240 240 239 237 235 234
255 259 259 256 266 277 282 281 262 241 246 275 197 210 230 233 235 244 247 251 269 309 4 27 32 24 20 15 359 348 334 324 323 20 43 24 10 1 351 349 350 348 346 346 346 347 348 347 347 349 351 348 338 322 310 304 298 293 289 286 281 276 273 270 269 268 266 262 259 256 253 249 246 244 243 243 242 241 239 239 238 238 237 235 235 235
245 254 258 255 259 269 270 260 255 261 277 270 194 24 316 277 279 278 262 280 29 35 37 33 26 17 15 6 356 350 342 334 326 38 23 6 359 356 348 344 344 344 344 344 344 344 345 346 346 346 347 351 353 349 342 336 328 313 301 295 290 283 278 274 269 267 265 262 260 257 254 250 247 244 243 242 240 239 238 238 237 237 236 235 234 234
232 245 257 257 247 258 267 261 266 279 279 266 289 2 1 335 321 304 270 55 45 39 37 30 18 11 9 1 354 350 348 347 339 335 349 350 350 348 345 343 343 342 343 344 345 346 346 347 348 347 346 349 352 352 349 348 345 334 316 308 305 298 289 280 273 269 266 264 262 258 254 250 246 244 243 241 240 239 238 238 237 236 236 234 233 233
223 230 251 267 252 261 274 270 274 276 269 293 326 316 320 305 290 275 234 127 50 39 37 32 19 8 2 353 354 355 351 351 346 327 335 340 342 343 342 342 342 343 345 347 349 350 350 350 350 349 348 347 348 349 348 348 349 346 337 329 324 316 304 293 284 278 272 268 264 257 252 249 246 244 243 242 241 241 240 239 238 237 237 235 234 234
291 235 235 258 256 261 270 268 273 268 243 32 338 316 328 323 314 299 209 170 56 39 35 30 15 3 357 341 344 354 354 346 328 316 326 331 335 337 338 339 342 344 345 347 348 348 347 347 347 346 346 346 346 347 348 348 349 350 348 343 335 325 317 310 300 290 279 271 265 258 252 249 246 244 244 244 244 243 242 241 239 238 237 236 235 235
348 277 235 251 258 266 269 268 277 274 102 18 331 333 335 325 320 317 240 305 19 24 32 25 2 337 333 326 329 349 355 321 298 302 316 323 327 332 336 338 339 340 340 340 341 340 339 339 341 341 341 342 343 344 344 344 346 348 348 346 342 336 329 322 311 300 289 279 270 263 257 252 250 248 248 247 246 244 242 241 239 238 237 236 235 234
329 290 257 252 258 270 268 267 278 258 130 15 339 347 343 330 320 300 293 325 348 349 350 351 336 317 316 310 311 312 293 288 290 298 310 319 324 329 333 334 334 333 332 333 333 333 332 332 333 335 335 336 337 338 340 340 342 344 343 342 343 342 335 328 322 313 303 293 282 272 264 259 255 252 251 248 246 244 242 241 240 239 238 236 234 233
278 262 257 249 265 282 269 271 283 257 125 32 355 348 355 359 303 278 302 313 314 313 326 326 313 309 313 307 306 302 293 296 300 302 311 318 320 324 327 328 328 327 327 328 329 329 329 327 327 329 330 331 333 335 337 337 337 339 338 337 340 339 331 325 323 320 315 309 299 286 276 269 262 256 252 248 246 245 244 242 240 239 238 236 235 234
281 283 282 260 267 285 269 263 265 244 357 5 354 349 11 40 267 281 293 294 285 285 301 306 303 309 312 306 305 302 296 301 303 303 311 314 316 320 322 323 324 324 325 327 326 327 328 326 325 326 326 327 329 332 334 334 333 332 331 330 334 335 329 323 319 315 311 310 309 302 290 279 271 263 256 251 249 248 247 244 241 239 238 236 235 234
259 256 271 267 277 287 261 258 272 281 319 331 334 316 290 295 285 281 284 284 281 281 286 292 298 306 305 298 297 296 295 297 298 300 307 311 313 317 318 319 321 321 322 325 325 326 327 325 323 324 324 326 328 330 333 333 330 326 322 323 326 326 325 325 323 317 309 305 304 304 298 289 280 272 263 256 253 250 248 246 243 240 238 237 235 234
225 220 249 257 261 261 242 258 283 292 297 304 299 267 281 298 295 284 277 274 275 276 279 285 294 302 299 289 286 289 288 291 295 300 304 307 311 313 314 316 318 318 319 320 320 322 323 323 323 323 322 323 326 330 332 332 329 322 316 316 317 314 313 315 315 313 310 304 299 297 296 292 285 278 269 261 256 252 249 247 244 241 239 238 236 234
263 267 270 254 250 267 259 258 273 286 289 291 290 288 294 298 293 282 275 268 264 267 276 284 290 292 287 280 282 287 289 292 297 301 304 307 309 310 311 312 314 315 315 314 315 318 319 319 321 321 321 321 324 327 329 328 326 321 315 314 313 310 307 305 302 301 301 300 297 293 290 289 285 279 273 266 262 258 254 252 249 245 242 240 237 234
260 253 253 249 260 270 266 260 268 277 278 282 288 292 295 293 284 278 279 270 260 266 282 288 288 285 282 282 286 289 293 299 302 303 305 307 306 307 308 308 309 310 309 309 312 314 315 317 319 320 320 320 321 324 325 323 321 317 313 312 312 310 307 304 300 297 295 295 294 290 287 286 284 279 273 267 263 261 256 251 249 245 242 241 238 234
253 237 224 236 245 244 253 271 276 275 275 279 283 285 285 283 279 285 286 273 264 274 285 284 281 281 284 290 294 297 301 304 304 304 305 305 304 304 304 303 303 304 305 306 309 311 312 314 315 316 316 317 318 320 321 319 318 316 313 311 310 309 307 303 300 298 296 294 292 287 283 282 281 278 273 268 264 260 255 250 248 244 243 244 242 237
249 269 238 242 256 264 269 275 277 277 278 278 278 280 281 282 286 288 283 273 271 278 281 278 278 283 288 294 299 301 302 302 303 304 304 302 302 302 302 302 302 303 304 305 307 308 309 310 311 312 312 313 314 316 316 315 315 314 313 311 308 307 305 302 299 297 296 294 291 285 279 277 276 275 272 267 264 260 255 251 250 247 245 245 245 242
231 258 252 248 262 266 263 265 269 275 277 274 279 286 288 289 290 286 277 273 273 275 277 279 283 286 289 294 299 302 300 300 302 303 301 299 299 300 300 300 300 301 303 305 306 306 307 307 307 308 308 310 312 312 311 311 311 311 311 311 309 306 303 300 297 294 292 291 289 284 279 275 273 272 267 263 259 256 251 248 246 245 244 243 242 241
225 237 240 243 249 251 257 263 264 263 267 276 282 287 289 289 290 284 277 275 273 274 281 287 288 289 291 294 297 299 298 298 301 301 300 299 299 299 300 300 300 300 302 303 303 303 304 304 304 305 305 307 308 308 307 308 308 308 308 308 307 305 301 298 294 290 288 286 285 284 280 276 273 271 266 260 254 250 247 244 243 242 242 241 240 239